This demonstration page uses our WeatherBlox Daily Observations layout. Learn more.

Left ArrowRight Arrow

Hourly Observations for June 27, 2020

Temp ( °F °C ) Dew Point ( °F °C ) Humidity (%) Winds ( mph kmh ) Pressure ( in mb ) Visibility ( mi km ) Precip ( " mm )
12:53 am 00:53 Clear 70 21.1 61 16.1 73 73 SW 3 6 30.13 1020 10 16 0.00 0.00
1:53 am 01:53 Clear 70 21.1 61 16.1 73 73 undefined N/A 30.13 1020 10 16 0.00 0.00
2:53 am 02:53 Clear 69 20.6 62 16.7 78 78 SW 6 9 30.11 1020 10 16 0.00 0.00
3:53 am 03:53 Clear 66 18.9 62 16.7 87 87 NE 3 6 30.11 1020 10 16 0.00 0.00
4:53 am 04:53 Clear 67 19.4 62 16.7 84 84 Calm 30.11 1020 10 16 0.00 0.00
5:53 am 05:53 Clear 68 20 62 16.7 81 81 SSW 3 6 30.12 1020 10 16 0.00 0.00
6:53 am 06:53 Sunny 67 19.4 63 17.2 87 87 Calm 30.14 1021 10 16 0.00 0.00
7:53 am 07:53 Mostly Cloudy 68 20 63 17.2 84 84 Calm 30.14 1021 10 16 0.00 0.00
8:53 am 08:53 Partly Cloudy with Light Rain 71 21.7 65 18.3 81 81 Calm 30.14 1021 10 16 0.00 0.00
9:53 am 09:53 Sunny 75 23.9 64 17.8 69 69 Calm 30.14 1021 10 16 0.00 0.00
10:53 am 10:53 Hazy 78 25.6 64 17.8 62 62 SSW 7 11 30.12 1020 5 8 0.00 0.00
11:53 am 11:53 Hazy 80 26.7 67 19.4 64 64 VRB 5 7 30.11 1020 5 8 0.00 0.00
12:53 pm 12:53 Hazy 82 27.8 69 20.6 65 65 VRB 7 11 30.11 1020 10 16 0.00 0.00
1:53 pm 13:53 Mostly Cloudy 84 28.9 70 21.1 63 63 SW 9 15 30.08 1019 10 16 0.00 0.00
2:53 pm 14:53 Mostly Sunny 85 29.4 68 20 57 57 WSW 12 19 30.05 1018 10 16 0.00 0.00
3:53 pm 15:53 Mostly Cloudy 86 30 68 20 55 55 W 10 17 30.03 1017 10 16 0.00 0.00
4:34 pm 16:34 Mostly Cloudy with Nearby Thunderstorms 73 22.8 66 18.9 79 79 NW 26 43 30.06 1018 2 3 0.05 1.27
4:37 pm 16:37 Cloudy with Strong Thunderstorms 70 21.1 66 18.9 87 87 NW 26 43 30.07 1018 1 1 0.09 2.29
4:40 pm 16:40 Cloudy with Strong Thunderstorms 69 20.6 66 18.9 90 90 NW 22 35 30.10 1019 1 1 0.12 3.05
4:53 pm 16:53 Cloudy with Strong Thunderstorms 69 20.6 66 18.9 90 90 NW 20 31 30.09 1019 1 1 0.27 6.86
4:59 pm 16:59 Cloudy with Strong Thunderstorms 69 20.6 66 18.9 90 90 NW 13 20 30.08 1018 1 2 0.06 1.52
5:06 pm 17:06 Cloudy with Thunderstorms 69 20.6 66 18.9 90 90 NW 8 13 30.08 1018 3 5 0.13 3.30
5:13 pm 17:13 Cloudy with Nearby Thunderstorms 69 20.6 66 18.9 90 90 NW 10 17 30.08 1018 3 5 0.18 4.57
5:53 pm 17:53 Mostly Cloudy with Light Rain 70 21.1 69 20.6 97 97 E 6 9 30.05 1018 10 16 0.38 9.65
6:53 pm 18:53 Cloudy with Light Rain 71 21.7 71 21.7 100 100 Calm 30.04 1017 10 16 0.14 3.56
7:53 pm 19:53 Sunny 72 22.2 71 21.7 97 97 Calm 30.03 1017 10 16 0.03 0.76
8:53 pm 20:53 Clear 71 21.7 71 21.7 100 100 SSW 3 6 30.01 1016 10 16 0.00 0.00
9:53 pm 21:53 Clear 71 21.7 71 21.7 100 100 SSW 3 6 30.00 1016 10 16 0.00 0.00
10:53 pm 22:53 Clear 72 22.2 68 20 87 87 Calm 30.01 1016 10 16 0.00 0.00
11:53 pm 23:53 Clear 72 22.2 69 20.6 91 91 Calm 30.02 1017 10 16 0.00 0.00

Powered by AerisWeather